Preview of NWS' New Version of Forecast
This preview is not operational and should not be used for support decisions.

Regional Weather Roundup (RWR)

Issued by National Weather Service (NWS)

                            
000
ASUS44 KMEG 172110
RWRTN 
TENNESSEE HOURLY STATE WEATHER ROUNDUP
NATIONAL WEATHER SERVICE MEMPHIS TN
400 PM CDT WED APR 17 2019

TNZ002-004-019-021-049-052-054-088>092-172200-
WEST TENNESSEE
  
CITY           SKY/WX    TMP DP  RH WIND       PRES   REMARKS
MEMPHIS INTL   CLOUDY    73  62  68 S15       29.90F                  
NWS MEMPHIS      N/A     74 N/A N/A MISG        N/A                   
JACKSON        FAIR      75  57  53 S15G22    29.91F                  
DYERSBURG      PTSUNNY   75  59  57 S13       29.88F                  
SOMERVILLE     SUNNY     73  57  56 S7G15     29.90F                  
COVINGTON      PTSUNNY   73  59  60 S15       29.88F                  
UNION CITY     PTSUNNY   75  59  57 S13G21    29.86F                  
BOLIVAR        SUNNY     73  57  56 S9G16     29.92F                  
PARIS          PTSUNNY   77  57  50 S12       29.88F                  
HUNTINGDON     SUNNY     77  54  44 S15G22    29.88F                  
LEXINGTON      PTSUNNY   75  46  35 S18G26    29.93S                  
SELMER         MOSUNNY   72  54  53 S13       29.94F                  
SAVANNAH       MOSUNNY   73  46  38 S13G18    29.94F                  
$$

TNZ008-025-027-028-033-062-065-066-172200-
NORTH MIDDLE TENNESSEE
  
CITY           SKY/WX    TMP DP  RH WIND       PRES   REMARKS
NASHVILLE      PTSUNNY   77  47  34 S16       29.93F                  
DICKSON        MOCLDY    79  41  25 S18       29.92S                  
CLARKSVILLE    FAIR      79  45  29 S12G23    29.88F                  
LEBANON        CLEAR     77  48  36 SW18      29.92F                  
SMYRNA         FAIR      76  51  41 S10G18    29.95F                  
COOKEVILLE     SUNNY     79  46  31 SW9G15    29.96F                  
LIVINGSTON     CLEAR     77  41  27 SW12G17   29.96F                  
GALLATIN       CLEAR     79  48  34 S10G17    29.95F                  
CROSSVILLE     FAIR      77  41  27 S9G17     30.01F                  
ROCKWOOD       CLEAR     75  45  33 S9G16     30.02F                  
$$

TNZ061-075-076-078-094-096-097-172200-
SOUTH MIDDLE TENNESSEE
  
CITY           SKY/WX    TMP DP  RH WIND       PRES   REMARKS
LAWRENCEBURG   MOCLDY    73  48  40 S6G16     29.97F                  
LEWISBURG      PTCLDY    77  50  38 S12G21    29.96F                  
FAYETTEVILLE   SUNNY     77  48  36 S13       29.98F                  
TULLAHOMA      SUNNY     75  48  38 SW12G21   29.98F                  
WINCHESTER     SUNNY     77  46  33 S9G17     29.98F                  
MCMINNVILLE    SUNNY     79  48  34 SW9       29.97F                  
COLUMBIA       SUNNY     75  46  35 S17       29.93F                  
SHELBYVILLE    SUNNY     77  50  38 SW14G22   29.96F                  
$$

TNZ017-018-042-046-047-172200-
NORTHEAST TENNESSEE
  
CITY           SKY/WX    TMP DP  RH WIND       PRES   REMARKS
TRI CITIES     CLOUDY    74  42  31 SW13      30.03F                  
ELIZABETHTON   FAIR      75  46  35 NW8       30.03F                  
GREENEVILLE    CLEAR     73  43  33 SW5       30.03F                  
$$

TNZ012-013-036-069-073-074-172200-
CENTRAL EAST TENNESSEE
  
CITY           SKY/WX    TMP DP  RH WIND       PRES   REMARKS
KNOXVILLE      PTSUNNY   78  44  29 SW8       29.99F                  
OAK RIDGE      FAIR      78  44  29 VRB5      30.01F                  
DOWNTOWN KNOXV SUNNY     79  43  27 W6        30.00F                  
GATLINBURG     SUNNY     79  46  31 NW3       30.00F                  
MORRISTOWN     SUNNY     75  45  33 NW7       30.01F                  
JACKSBORO      SUNNY     77  45  31 S15       30.02F                  
$$

TNZ083-085-099-172200-
SOUTHEAST TENNESSEE
  
CITY           SKY/WX    TMP DP  RH WIND       PRES   REMARKS
CHATTANOOGA    PTSUNNY   80  45  28 S8        30.00F                  
DAYTON         CLEAR     79  50  36 VRB7G14   29.99F                  
$$

SKY/WX REPORTED AS FAIR MEANS FEW OR NO CLOUDS BELOW
12 THOUSAND FEET.